Change the Weather History Date:

Monday, November 28, 2011

  Actual Average Record
Temperature  
Mean Temperature 62 °F 59 °F  
Max Temperature 75 °F 70 °F 86 °F (1901)
Min Temperature 48 °F 48 °F 32 °F (1896)
Degree Days  
Heating Degree Days 3 6  
Month to date heating degree days 63 84  
Since 1 July heating degree days 63 90  
Cooling Degree Days 0 0  
Month to date cooling degree days 33 69  
Year to date cooling degree days 4897 4605  
Growing Degree Days 10 (Base 50)    
Moisture  
Dew Point 27 °F    
Average Humidity 32    
Maximum Humidity 50    
Minimum Humidity 14    
Precipitation  
Precipitation 0.00 in 0.03 in 0.51 in (1967)
Month to date precipitation 0.81 0.60  
Year to date precipitation 3.56 7.10  
Snow  
Snow 0.00 in - - ()
Month to date snowfall 0.0  
Year to date snowfall 0.0  
Since 1 July snowfall 0.0  
Snow Depth 0.00 in    
Sea Level Pressure  
Sea Level Pressure 30.14 in    
Wind  
Wind Speed 2 mph (East)    
Max Wind Speed 8 mph    
Max Gust Speed 9 mph    
Visibility 10 miles    
Events      
T = Trace of Precipitation, MM = Missing Value Source: NWS Daily Summary

Daily Weather History Graph

Daily Weather History Graph

Search for Another Location

Airport or City:

Trip Planner

Search our weather history database for the weather conditions in past years. The results will help you decide how hot, cold, wet, or windy it might be!

Date:

Astronomy

Nov. 28, 2011 Rise Set
Actual Time 7:11 AM MST 5:20 PM MST
Civil Twilight 6:44 AM MST 5:47 PM MST
Nautical Twilight 6:13 AM MST 6:18 PM MST
Astronomical Twilight 5:43 AM MST 6:48 PM MST
Moon 10:24 AM MST (11/28) 9:08 PM MST (11/28)
Length of Visible Light 11h 03m
Length of Day
10h 09m
Waxing Crescent, 16% of the Moon is Illuminated
Nov 28
Waxing Crescent
Dec 2
First Quarter
Dec 10
Full
Dec 17
Last Quarter
Dec 24
New

Hourly Weather History & Observations

Time (MST) Temp. Dew Point Humidity Pressure Visibility Wind Dir Wind Speed Gust Speed Precip Events Conditions
12:51 AM 54.0 °F 26.1 °F 34% 30.22 in 10.0 mi ESE 5.8 mph - N/A   Clear
1:51 AM 53.1 °F 26.1 °F 35% 30.21 in 10.0 mi East 3.5 mph - N/A   Clear
2:51 AM 52.0 °F 27.0 °F 38% 30.21 in 10.0 mi Calm Calm - N/A   Clear
3:51 AM 51.1 °F 28.9 °F 43% 30.20 in 10.0 mi East 3.5 mph - N/A   Clear
4:51 AM 51.1 °F 28.0 °F 41% 30.19 in 10.0 mi East 4.6 mph - N/A   Clear
5:51 AM 52.0 °F 28.0 °F 40% 30.19 in 10.0 mi Calm Calm - N/A   Clear
6:51 AM 48.9 °F 30.0 °F 48% 30.19 in 10.0 mi ESE 4.6 mph - N/A   Partly Cloudy
7:51 AM 50.0 °F 28.0 °F 43% 30.20 in 10.0 mi ESE 3.5 mph - N/A   Scattered Clouds
8:51 AM 55.0 °F 28.0 °F 35% 30.21 in 10.0 mi East 4.6 mph - N/A   Mostly Cloudy
9:51 AM 60.8 °F 26.6 °F 27% 30.23 in 10.0 mi Calm Calm - N/A   Mostly Cloudy
10:51 AM 64.9 °F 26.1 °F 23% 30.20 in 10.0 mi Calm Calm - N/A   Mostly Cloudy
11:51 AM 69.1 °F 25.0 °F 19% 30.17 in 10.0 mi Calm Calm - N/A   Mostly Cloudy
12:51 PM 70.0 °F 24.1 °F 18% 30.13 in 10.0 mi Calm Calm - N/A   Mostly Cloudy
1:51 PM 73.0 °F 24.1 °F 16% 30.10 in 10.0 mi Calm Calm - N/A   Mostly Cloudy
2:51 PM 73.0 °F 23.0 °F 15% 30.08 in 10.0 mi Calm Calm - N/A   Mostly Cloudy
3:51 PM 73.9 °F 21.9 °F 14% 30.07 in 10.0 mi WNW 4.6 mph - N/A   Overcast
4:51 PM 73.9 °F 23.0 °F 15% 30.06 in 10.0 mi Calm Calm - N/A   Overcast
5:51 PM 71.1 °F 25.0 °F 18% 30.05 in 10.0 mi Calm Calm - N/A   Overcast
6:51 PM 66.0 °F 28.0 °F 24% 30.06 in 10.0 mi Calm Calm - N/A   Mostly Cloudy
7:51 PM 64.9 °F 28.9 °F 26% 30.06 in 10.0 mi Calm Calm - N/A   Mostly Cloudy
8:51 PM 63.0 °F 30.9 °F 30% 30.06 in 10.0 mi Calm Calm - N/A   Overcast
9:51 PM 60.1 °F 32.0 °F 35% 30.07 in 10.0 mi ESE 3.5 mph - N/A   Overcast
10:51 PM 59.0 °F 33.1 °F 38% 30.07 in 10.0 mi East 4.6 mph - N/A   Overcast
11:51 PM 57.0 °F 34.0 °F 42% 30.06 in 10.0 mi East 5.8 mph - N/A   Overcast